Location: Unspecified
(0.0000°N, 0.0000°E)
Time: 06:09:31
(UTC+00:00)

Vanguard 1 Rocket - Visible Passes

Search period start: 01 November 2014 00:00
Search period end: 11 November 2014 00:00
Orbit: 654 x 4226 km, 34.3° (Epoch: 26 October)

Date Brightness Start Highest point End Pass type
(mag) Time Alt. Az. Time Alt. Az. Time Alt. Az.
01 Nov 10.6 03:29:58 12° NNW 03:35:02 15° N 03:40:18 10° NE visible
01 Nov 10.3 18:13:32 10° SW 18:30:12 77° SE 18:53:32 16° ENE visible
01 Nov 10.8 20:42:42 10° WSW 21:04:04 51° NW 21:10:53 45° N visible
01 Nov 11.7 23:23:33 10° WNW 23:28:15 15° WNW 23:28:15 15° WNW visible
02 Nov 10.9 02:23:18 14° NNE 02:23:18 14° NNE 02:27:12 10° NNE visible
02 Nov 9.7 04:44:03 10° NNW 04:53:07 26° NNE 04:58:47 10° ENE visible
02 Nov 10.5 19:29:19 10° WSW 19:48:29 68° NW 20:04:23 32° NE visible
02 Nov 11.2 22:04:07 10° W 22:21:44 31° NW 22:21:44 31° NW visible
03 Nov 10.3 03:34:00 15° NNW 03:40:17 20° NNE 03:46:45 10° ENE visible
03 Nov 10.3 18:17:27 10° SW 18:33:48 89° NW 18:57:51 15° NE visible
03 Nov 11.0 20:47:46 10° W 21:08:21 42° NNW 21:15:12 38° N visible
03 Nov 11.8 23:30:34 10° WNW 23:32:33 12° NW 23:32:33 12° NW visible
04 Nov 10.8 02:27:24 17° NNE 02:27:24 17° NNE 02:33:49 10° NE visible
04 Nov 9.3 04:47:01 10° NW 04:57:50 37° NNE 05:03:58 10° E visible
04 Nov 10.7 19:33:49 10° WSW 19:52:28 57° NNW 20:08:38 29° NNE visible
04 Nov 11.4 22:10:27 10° WNW 22:25:59 26° NW 22:25:59 26° NW visible
05 Nov 10.1 03:38:10 18° NNW 03:45:19 27° NNE 03:52:32 10° ENE visible
05 Nov 10.4 18:21:34 10° WSW 18:37:33 76° NW 19:02:01 13° NE visible
05 Nov 11.1 20:53:15 10° W 21:13:00 36° NNW 21:19:22 33° N visible
06 Nov 10.6 02:31:36 22° NNE 02:31:36 22° NNE 02:40:06 10° ENE visible
06 Nov 8.8 04:50:13 10° NW 05:02:20 54° NNE 05:08:43 10° ESE visible
06 Nov 10.9 19:38:38 10° W 19:56:45 47° NNW 20:12:42 26° NNE visible
06 Nov 11.5 22:17:08 10° WNW 22:30:02 22° NNW 22:30:02 22° NNW visible
07 Nov 11.1 01:25:03 13° NE 01:25:03 13° NE 01:26:39 10° NE visible
07 Nov 9.7 03:42:24 22° NNW 03:50:09 36° NNE 03:57:48 10° E visible
07 Nov 10.5 18:25:56 10° WSW 18:41:32 63° NW 19:06:00 12° NE visible
07 Nov 11.2 20:59:10 10° WNW 21:18:04 30° NNW 21:23:20 28° N visible
08 Nov 10.4 02:35:52 28° NNE 02:36:47 28° NNE 02:45:56 10° ENE visible
08 Nov 8.5 04:53:41 10° NW 05:06:36 77° NE 05:13:08 10° ESE visible
08 Nov 11.0 19:43:49 10° W 20:01:20 39° NNW 20:16:34 23° NNE visible
08 Nov 11.6 22:23:50 10° NW 22:33:54 19° NNW 22:33:54 19° NNW visible
09 Nov 10.9 01:29:21 17° NE 01:29:21 17° NE 01:32:53 10° ENE visible
09 Nov 9.3 03:46:42 26° NNW 03:54:45 50° NNE 04:02:41 10° ESE visible
09 Nov 10.7 18:30:34 10° WSW 18:45:47 51° NNW 19:09:46 11° NE visible
09 Nov 11.3 21:05:27 10° WNW 21:23:32 26° NNW 21:27:05 25° N visible
10 Nov 10.1 02:40:10 35° NNE 02:41:44 36° NNE 02:51:20 10° E visible
10 Nov 8.4 04:57:31 10° WNW 05:10:37 76° SW 05:17:17 10° SE visible
10 Nov 11.2 19:49:24 10° W 20:06:17 33° NNW 20:20:13 21° NNE visible
10 Nov 11.6 22:30:11 10° NW 22:37:32 17° NNW 22:37:32 17° NNW visible
